Time,TemperatureF,DewpointF,PressureIn,WindDirection,WindDirectionDegrees,WindSpeedMPH,WindSpeedGustMPH,Humidity,HourlyPrecipIn,Conditions,Clouds,dailyrainin,SoftwareType,DateUTC
2013-06-13 00:00:00,70.5,67.4,29.78,North,350,0.0,0.0,90,0.00,,,0.00,Wunderground v.1.15,2013-06-13 04:00:00,
2013-06-13 00:03:00,70.4,67.3,29.78,N/A,-737280,0.0,-999.0,90,0.00,,,0.36,Wunderground v.1.15,2013-06-13 04:03:00,
2013-06-13 00:05:00,70.4,67.3,29.78,North,350,0.0,0.0,90,0.00,,,0.00,Wunderground v.1.15,2013-06-13 04:05:00,
2013-06-13 00:08:00,70.3,67.2,29.78,N/A,-737280,0.0,-999.0,90,0.00,,,0.36,Wunderground v.1.15,2013-06-13 04:08:00,
2013-06-13 00:10:00,70.3,67.2,29.78,North,350,0.0,0.0,90,0.00,,,0.00,Wunderground v.1.15,2013-06-13 04:10:00,
2013-06-13 00:13:00,70.0,66.9,29.78,N/A,-737280,0.0,-999.0,90,0.00,,,0.36,Wunderground v.1.15,2013-06-13 04:13:00,
2013-06-13 00:15:00,70.1,67.0,29.78,North,350,0.0,0.0,90,0.00,,,0.00,Wunderground v.1.15,2013-06-13 04:15:00,
2013-06-13 00:18:00,69.8,67.1,29.78,N/A,-737280,0.0,-999.0,91,0.00,,,0.36,Wunderground v.1.15,2013-06-13 04:18:00,
2013-06-13 00:20:00,69.8,67.1,29.78,North,350,0.0,0.0,91,0.00,,,0.00,Wunderground v.1.15,2013-06-13 04:20:00,
2013-06-13 00:23:00,69.6,66.9,29.77,N/A,-737280,0.0,-999.0,91,0.00,,,0.36,Wunderground v.1.15,2013-06-13 04:23:00,
2013-06-13 00:25:00,69.7,67.0,29.77,North,350,0.0,0.0,91,0.00,,,0.00,Wunderground v.1.15,2013-06-13 04:25:00,
2013-06-13 00:28:00,69.5,66.8,29.76,N/A,-737280,0.0,-999.0,91,0.00,,,0.36,Wunderground v.1.15,2013-06-13 04:28:00,
2013-06-13 00:30:00,69.5,66.8,29.76,North,350,0.0,0.0,91,0.00,,,0.00,Wunderground v.1.15,2013-06-13 04:30:00,
2013-06-13 00:33:00,69.4,67.0,29.77,N/A,-737280,0.0,-999.0,92,0.00,,,0.36,Wunderground v.1.15,2013-06-13 04:33:00,
2013-06-13 00:35:00,69.4,67.0,29.77,North,350,0.0,0.0,92,0.00,,,0.00,Wunderground v.1.15,2013-06-13 04:35:00,
2013-06-13 00:38:00,69.2,66.8,29.77,N/A,-737280,0.0,-999.0,92,0.00,,,0.36,Wunderground v.1.15,2013-06-13 04:38:00,
2013-06-13 00:40:00,69.2,66.8,29.77,North,350,0.0,0.0,92,0.00,,,0.00,Wunderground v.1.15,2013-06-13 04:40:00,
2013-06-13 00:43:00,69.0,66.6,29.76,N/A,-737280,0.0,-999.0,92,0.00,,,0.36,Wunderground v.1.15,2013-06-13 04:43:00,
2013-06-13 00:45:00,69.0,66.6,29.76,North,350,0.0,0.0,92,0.00,,,0.00,Wunderground v.1.15,2013-06-13 04:45:00,
2013-06-13 00:48:00,69.0,66.6,29.77,N/A,-737280,0.0,-999.0,92,0.00,,,0.36,Wunderground v.1.15,2013-06-13 04:48:00,
2013-06-13 00:50:00,69.0,66.6,29.77,North,350,0.0,0.0,92,0.00,,,0.00,Wunderground v.1.15,2013-06-13 04:50:00,
2013-06-13 00:53:00,68.9,66.5,29.77,N/A,-737280,0.0,-999.0,92,0.00,,,0.36,Wunderground v.1.15,2013-06-13 04:53:00,
2013-06-13 00:55:00,68.9,66.5,29.77,North,350,0.0,0.0,92,0.00,,,0.00,Wunderground v.1.15,2013-06-13 04:55:00,
2013-06-13 00:58:00,68.8,66.4,29.77,N/A,-737280,0.0,-999.0,92,0.00,,,0.36,Wunderground v.1.15,2013-06-13 04:58:00,
2013-06-13 01:00:00,68.8,66.4,29.77,North,350,0.0,0.0,92,0.00,,,0.00,Wunderground v.1.15,2013-06-13 05:00:00,
2013-06-13 01:03:00,68.8,66.4,29.77,N/A,-737280,0.0,-999.0,92,0.00,,,0.36,Wunderground v.1.15,2013-06-13 05:03:00,
2013-06-13 01:08:00,68.7,66.3,29.76,North,0,0.0,-999.0,92,0.00,,,0.36,Wunderground v.1.15,2013-06-13 05:08:00,
2013-06-13 01:10:00,68.7,66.3,29.76,North,350,0.0,0.0,92,0.00,,,0.00,Wunderground v.1.15,2013-06-13 05:10:00,
2013-06-13 01:13:00,68.7,66.3,29.76,N/A,-737280,0.0,-999.0,92,0.00,,,0.36,Wunderground v.1.15,2013-06-13 05:13:00,
2013-06-13 01:15:00,68.7,66.3,29.76,North,350,0.0,0.0,92,0.00,,,0.00,Wunderground v.1.15,2013-06-13 05:15:00,
2013-06-13 01:18:00,68.7,66.3,29.76,N/A,-737280,0.0,-999.0,92,0.00,,,0.36,Wunderground v.1.15,2013-06-13 05:18:00,
2013-06-13 01:20:00,68.7,66.6,29.76,North,350,0.0,0.0,93,0.00,,,0.00,Wunderground v.1.15,2013-06-13 05:20:00,
2013-06-13 01:23:00,68.7,66.3,29.76,North,0,0.0,-999.0,92,0.00,,,0.36,Wunderground v.1.15,2013-06-13 05:23:00,
2013-06-13 01:25:00,68.7,66.3,29.76,North,350,0.0,0.0,92,0.00,,,0.00,Wunderground v.1.15,2013-06-13 05:25:00,
2013-06-13 01:28:00,68.7,66.3,29.76,N/A,-737280,0.0,-999.0,92,0.00,,,0.36,Wunderground v.1.15,2013-06-13 05:28:00,
2013-06-13 01:30:00,68.7,66.3,29.76,North,350,0.0,0.0,92,0.00,,,0.00,Wunderground v.1.15,2013-06-13 05:30:00,
2013-06-13 01:33:00,68.8,66.4,29.75,N/A,-737280,0.0,-999.0,92,0.00,,,0.36,Wunderground v.1.15,2013-06-13 05:33:00,
2013-06-13 01:35:00,68.8,66.4,29.75,North,350,0.0,0.0,92,0.00,,,0.00,Wunderground v.1.15,2013-06-13 05:35:00,
2013-06-13 01:38:00,68.9,66.5,29.75,N/A,-737280,0.0,-999.0,92,0.00,,,0.36,Wunderground v.1.15,2013-06-13 05:38:00,
2013-06-13 01:43:00,69.0,66.6,29.75,North,0,0.0,-999.0,92,0.00,,,0.36,Wunderground v.1.15,2013-06-13 05:43:00,
2013-06-13 01:45:00,68.9,66.5,29.75,North,350,0.0,0.0,92,0.00,,,0.00,Wunderground v.1.15,2013-06-13 05:45:00,
2013-06-13 01:48:00,68.9,66.2,29.75,North,0,0.0,-999.0,91,0.00,,,0.36,Wunderground v.1.15,2013-06-13 05:48:00,
2013-06-13 01:50:00,68.9,66.2,29.75,North,350,0.0,0.0,91,0.00,,,0.00,Wunderground v.1.15,2013-06-13 05:50:00,
2013-06-13 01:53:00,68.9,66.5,29.74,N/A,-737280,0.0,-999.0,92,0.00,,,0.36,Wunderground v.1.15,2013-06-13 05:53:00,
2013-06-13 01:55:00,68.9,66.2,29.74,North,350,0.0,0.0,91,0.00,,,0.00,Wunderground v.1.15,2013-06-13 05:55:00,
2013-06-13 01:58:00,68.8,66.4,29.74,N/A,-737280,0.0,-999.0,92,0.00,,,0.36,Wunderground v.1.15,2013-06-13 05:58:00,
2013-06-13 02:00:00,68.8,66.4,29.74,North,350,0.0,0.0,92,0.00,,,0.00,Wunderground v.1.15,2013-06-13 06:00:00,
2013-06-13 02:03:00,68.7,66.3,29.74,N/A,-737280,0.0,-999.0,92,0.00,,,0.36,Wunderground v.1.15,2013-06-13 06:03:00,
2013-06-13 02:08:00,68.6,66.2,29.75,N/A,-737280,0.0,-999.0,92,0.00,,,0.36,Wunderground v.1.15,2013-06-13 06:08:00,
2013-06-13 02:10:00,68.6,66.2,29.75,North,350,0.0,0.0,92,0.00,,,0.00,Wunderground v.1.15,2013-06-13 06:10:00,
2013-06-13 02:13:00,68.6,66.2,29.74,N/A,-737280,0.0,-999.0,92,0.00,,,0.36,Wunderground v.1.15,2013-06-13 06:13:00,
2013-06-13 02:15:00,68.6,66.2,29.74,North,350,0.0,0.0,92,0.00,,,0.00,Wunderground v.1.15,2013-06-13 06:15:00,
2013-06-13 02:18:00,68.5,66.1,29.74,N/A,-737280,0.0,-999.0,92,0.00,,,0.36,Wunderground v.1.15,2013-06-13 06:18:00,
2013-06-13 02:20:00,68.5,66.1,29.74,North,350,0.0,0.0,92,0.00,,,0.00,Wunderground v.1.15,2013-06-13 06:20:00,
2013-06-13 02:23:00,68.5,66.1,29.74,N/A,-737280,0.0,-999.0,92,0.00,,,0.36,Wunderground v.1.15,2013-06-13 06:23:00,
2013-06-13 02:25:00,68.5,66.1,29.74,North,350,0.0,0.0,92,0.00,,,0.00,Wunderground v.1.15,2013-06-13 06:25:00,
2013-06-13 02:28:00,68.5,66.1,29.74,N/A,-737280,0.0,-999.0,92,0.00,,,0.36,Wunderground v.1.15,2013-06-13 06:28:00,
2013-06-13 02:30:00,68.5,66.1,29.74,North,350,0.0,0.0,92,0.00,,,0.00,Wunderground v.1.15,2013-06-13 06:30:00,
2013-06-13 02:33:00,68.4,66.3,29.74,N/A,-737280,0.0,-999.0,93,0.00,,,0.36,Wunderground v.1.15,2013-06-13 06:33:00,
2013-06-13 02:35:00,68.4,66.0,29.74,North,350,0.0,0.0,92,0.00,,,0.00,Wunderground v.1.15,2013-06-13 06:35:00,
2013-06-13 02:38:00,68.5,66.4,29.74,North,0,0.0,-999.0,93,0.00,,,0.36,Wunderground v.1.15,2013-06-13 06:38:00,
2013-06-13 02:40:00,68.5,66.4,29.74,North,350,0.0,0.0,93,0.00,,,0.00,Wunderground v.1.15,2013-06-13 06:40:00,
2013-06-13 02:43:00,68.6,66.5,29.74,North,0,0.0,-999.0,93,0.00,,,0.36,Wunderground v.1.15,2013-06-13 06:43:00,
2013-06-13 02:48:00,68.7,66.3,29.73,N/A,-737280,0.0,-999.0,92,0.00,,,0.36,Wunderground v.1.15,2013-06-13 06:48:00,
2013-06-13 02:50:00,68.7,66.3,29.73,North,350,0.0,0.0,92,0.00,,,0.00,Wunderground v.1.15,2013-06-13 06:50:00,
2013-06-13 02:53:00,68.9,66.5,29.73,N/A,-737280,0.0,-999.0,92,0.00,,,0.36,Wunderground v.1.15,2013-06-13 06:53:00,
2013-06-13 02:55:00,68.8,66.4,29.73,North,350,0.0,0.0,92,0.00,,,0.00,Wunderground v.1.15,2013-06-13 06:55:00,
2013-06-13 02:58:00,68.9,66.5,29.73,N/A,-737280,0.0,-999.0,92,0.00,,,0.36,Wunderground v.1.15,2013-06-13 06:58:00,
2013-06-13 03:00:00,68.9,66.5,29.73,North,350,0.0,0.0,92,0.00,,,0.00,Wunderground v.1.15,2013-06-13 07:00:00,
2013-06-13 03:03:00,68.9,66.5,29.72,N/A,-737280,0.0,-999.0,92,0.00,,,0.36,Wunderground v.1.15,2013-06-13 07:03:00,
2013-06-13 03:08:00,68.9,66.5,29.71,North,0,0.0,-999.0,92,0.00,,,0.36,Wunderground v.1.15,2013-06-13 07:08:00,
2013-06-13 03:10:00,68.9,66.5,29.71,North,350,0.0,0.0,92,0.00,,,0.00,Wunderground v.1.15,2013-06-13 07:10:00,
2013-06-13 03:13:00,69.0,66.6,29.72,N/A,-737280,0.0,-999.0,92,0.00,,,0.36,Wunderground v.1.15,2013-06-13 07:13:00,
2013-06-13 03:18:00,69.2,66.8,29.72,N/A,-737280,0.0,-999.0,92,0.00,,,0.36,Wunderground v.1.15,2013-06-13 07:18:00,
2013-06-13 03:23:00,69.4,67.0,29.72,North,0,0.0,-999.0,92,0.00,,,0.36,Wunderground v.1.15,2013-06-13 07:23:00,
2013-06-13 03:28:00,69.7,67.0,29.71,North,0,0.0,-999.0,91,0.00,,,0.36,Wunderground v.1.15,2013-06-13 07:28:00,
2013-06-13 03:33:00,69.9,67.2,29.71,North,0,0.0,-999.0,91,0.00,,,0.36,Wunderground v.1.15,2013-06-13 07:33:00,
2013-06-13 03:38:00,69.8,67.1,29.70,North,0,0.0,-999.0,91,0.00,,,0.36,Wunderground v.1.15,2013-06-13 07:38:00,
2013-06-13 03:43:00,69.7,67.0,29.70,N/A,-737280,0.0,-999.0,91,0.00,,,0.36,Wunderground v.1.15,2013-06-13 07:43:00,
2013-06-13 03:48:00,69.7,67.3,29.70,N/A,-737280,0.0,-999.0,92,0.01,,,0.36,Wunderground v.1.15,2013-06-13 07:48:00,
2013-06-13 03:53:00,69.5,67.1,29.69,N/A,-737280,0.0,-999.0,92,0.01,,,0.36,Wunderground v.1.15,2013-06-13 07:53:00,
2013-06-13 03:58:00,69.5,67.4,29.70,North,0,0.0,-999.0,93,0.01,,,0.36,Wunderground v.1.15,2013-06-13 07:58:00,
2013-06-13 04:03:00,69.5,67.4,29.68,West,270,0.0,-999.0,93,0.01,,,0.36,Wunderground v.1.15,2013-06-13 08:03:00,
2013-06-13 04:08:00,69.5,67.4,29.68,West,270,0.0,-999.0,93,0.01,,,0.36,Wunderground v.1.15,2013-06-13 08:08:00,
2013-06-13 04:13:00,69.7,67.6,29.68,West,270,0.0,-999.0,93,0.01,,,0.36,Wunderground v.1.15,2013-06-13 08:13:00,
2013-06-13 04:18:00,69.7,67.6,29.68,West,270,0.0,-999.0,93,0.01,,,0.36,Wunderground v.1.15,2013-06-13 08:18:00,
2013-06-13 04:23:00,69.7,67.6,29.68,N/A,-737280,0.0,-999.0,93,0.01,,,0.36,Wunderground v.1.15,2013-06-13 08:23:00,
2013-06-13 04:28:00,69.5,67.4,29.67,N/A,-737280,0.0,-999.0,93,0.01,,,0.36,Wunderground v.1.15,2013-06-13 08:28:00,
2013-06-13 04:33:00,69.2,67.1,29.67,N/A,-737280,0.0,-999.0,93,0.01,,,0.36,Wunderground v.1.15,2013-06-13 08:33:00,
2013-06-13 04:38:00,69.0,67.2,29.66,N/A,-737280,0.0,-999.0,94,0.01,,,0.36,Wunderground v.1.15,2013-06-13 08:38:00,
2013-06-13 04:43:00,68.9,67.1,29.66,N/A,-737280,0.0,-999.0,94,0.01,,,0.36,Wunderground v.1.15,2013-06-13 08:43:00,
2013-06-13 04:48:00,68.8,67.0,29.66,West,270,0.0,-999.0,94,0.00,,,0.36,Wunderground v.1.15,2013-06-13 08:48:00,
2013-06-13 04:53:00,68.6,66.8,29.66,N/A,-737280,0.0,-999.0,94,0.00,,,0.36,Wunderground v.1.15,2013-06-13 08:53:00,
2013-06-13 04:58:00,68.5,66.7,29.66,West,270,0.0,-999.0,94,0.00,,,0.36,Wunderground v.1.15,2013-06-13 08:58:00,
2013-06-13 05:03:00,68.4,66.9,29.65,West,270,0.0,-999.0,95,0.00,,,0.36,Wunderground v.1.15,2013-06-13 09:03:00,
2013-06-13 05:08:00,68.3,66.8,29.65,N/A,-737280,0.0,-999.0,95,0.00,,,0.36,Wunderground v.1.15,2013-06-13 09:08:00,
2013-06-13 05:13:00,68.1,66.6,29.65,N/A,-737280,0.0,-999.0,95,0.00,,,0.36,Wunderground v.1.15,2013-06-13 09:13:00,
2013-06-13 05:18:00,68.1,66.6,29.64,West,270,0.0,-999.0,95,0.00,,,0.36,Wunderground v.1.15,2013-06-13 09:18:00,
2013-06-13 05:23:00,67.9,66.4,29.64,N/A,-737280,0.0,-999.0,95,0.00,,,0.36,Wunderground v.1.15,2013-06-13 09:23:00,
2013-06-13 05:28:00,67.7,66.5,29.64,N/A,-737280,0.0,-999.0,96,0.00,,,0.36,Wunderground v.1.15,2013-06-13 09:28:00,
2013-06-13 05:33:00,67.7,66.5,29.64,N/A,-737280,0.0,-999.0,96,0.00,,,0.36,Wunderground v.1.15,2013-06-13 09:33:00,
2013-06-13 05:38:00,67.6,66.4,29.65,N/A,-737280,0.0,-999.0,96,0.00,,,0.36,Wunderground v.1.15,2013-06-13 09:38:00,
2013-06-13 05:43:00,67.5,66.3,29.65,N/A,-737280,0.0,-999.0,96,0.00,,,0.36,Wunderground v.1.15,2013-06-13 09:43:00,
2013-06-13 05:48:00,67.4,66.2,29.65,N/A,-737280,0.0,-999.0,96,0.00,,,0.36,Wunderground v.1.15,2013-06-13 09:48:00,
2013-06-13 05:53:00,67.3,66.1,29.65,N/A,-737280,0.0,-999.0,96,0.00,,,0.36,Wunderground v.1.15,2013-06-13 09:53:00,
2013-06-13 05:58:00,67.2,66.0,29.64,N/A,-737280,0.0,-999.0,96,0.00,,,0.36,Wunderground v.1.15,2013-06-13 09:58:00,
2013-06-13 06:03:00,67.3,66.1,29.64,N/A,-737280,0.0,-999.0,96,0.00,,,0.36,Wunderground v.1.15,2013-06-13 10:03:00,
2013-06-13 06:08:00,67.2,66.0,29.64,N/A,-737280,0.0,-999.0,96,0.00,,,0.36,Wunderground v.1.15,2013-06-13 10:08:00,
2013-06-13 06:13:00,67.2,66.0,29.64,N/A,-737280,0.0,-999.0,96,0.00,,,0.36,Wunderground v.1.15,2013-06-13 10:13:00,
2013-06-13 06:18:00,67.2,66.3,29.64,West,270,0.0,-999.0,97,0.00,,,0.36,Wunderground v.1.15,2013-06-13 10:18:00,
2013-06-13 06:23:00,67.3,66.4,29.64,N/A,-737280,0.0,-999.0,97,0.00,,,0.36,Wunderground v.1.15,2013-06-13 10:23:00,
2013-06-13 06:28:00,67.3,66.4,29.63,N/A,-737280,0.0,-999.0,97,0.00,,,0.36,Wunderground v.1.15,2013-06-13 10:28:00,
2013-06-13 06:33:00,67.4,66.5,29.63,N/A,-737280,0.0,-999.0,97,0.00,,,0.36,Wunderground v.1.15,2013-06-13 10:33:00,
2013-06-13 06:38:00,67.4,66.5,29.63,N/A,-737280,0.0,-999.0,97,0.00,,,0.36,Wunderground v.1.15,2013-06-13 10:38:00,
2013-06-13 06:43:00,67.5,66.6,29.62,N/A,-737280,0.0,-999.0,97,0.00,,,0.36,Wunderground v.1.15,2013-06-13 10:43:00,
2013-06-13 06:48:00,67.5,66.6,29.62,N/A,-737280,0.0,-999.0,97,0.00,,,0.36,Wunderground v.1.15,2013-06-13 10:48:00,
2013-06-13 06:53:00,67.5,66.6,29.63,N/A,-737280,0.0,-999.0,97,0.00,,,0.36,Wunderground v.1.15,2013-06-13 10:53:00,
2013-06-13 06:58:00,67.5,66.6,29.63,N/A,-737280,0.0,-999.0,97,0.00,,,0.36,Wunderground v.1.15,2013-06-13 10:58:00,
2013-06-13 07:03:00,67.6,66.7,29.62,West,270,0.0,-999.0,97,0.00,,,0.36,Wunderground v.1.15,2013-06-13 11:03:00,
2013-06-13 07:08:00,67.8,66.9,29.62,West,270,0.0,-999.0,97,0.00,,,0.36,Wunderground v.1.15,2013-06-13 11:08:00,
2013-06-13 07:13:00,67.9,67.0,29.61,SW,225,0.0,-999.0,97,0.00,,,0.36,Wunderground v.1.15,2013-06-13 11:13:00,
2013-06-13 07:18:00,68.2,67.3,29.60,SW,225,0.0,-999.0,97,0.00,,,0.36,Wunderground v.1.15,2013-06-13 11:18:00,
2013-06-13 07:23:00,68.4,67.5,29.59,SW,225,0.0,-999.0,97,0.00,,,0.36,Wunderground v.1.15,2013-06-13 11:23:00,
2013-06-13 07:28:00,68.6,67.7,29.60,SW,225,0.0,-999.0,97,0.00,,,0.36,Wunderground v.1.15,2013-06-13 11:28:00,
2013-06-13 07:33:00,68.8,67.9,29.60,SW,225,0.0,-999.0,97,0.00,,,0.36,Wunderground v.1.15,2013-06-13 11:33:00,
2013-06-13 07:38:00,69.1,68.2,29.60,SW,225,1.0,-999.0,97,0.00,,,0.36,Wunderground v.1.15,2013-06-13 11:38:00,
2013-06-13 07:43:00,69.2,68.3,29.59,SW,225,0.0,-999.0,97,0.00,,,0.36,Wunderground v.1.15,2013-06-13 11:43:00,
2013-06-13 07:48:00,69.6,68.7,29.69,West,270,13.0,-999.0,97,0.00,,,0.36,Wunderground v.1.15,2013-06-13 11:48:00,
2013-06-13 07:53:00,68.9,67.1,29.67,West,270,17.0,-999.0,94,0.12,,,0.36,Wunderground v.1.15,2013-06-13 11:53:00,
2013-06-13 07:58:00,67.3,64.9,29.63,West,270,13.0,-999.0,92,0.22,,,0.36,Wunderground v.1.15,2013-06-13 11:58:00,
2013-06-13 08:03:00,67.7,65.0,29.62,West,270,13.0,-999.0,91,0.24,,,0.36,Wunderground v.1.15,2013-06-13 12:03:00,
2013-06-13 08:08:00,68.2,64.8,29.63,West,270,14.0,-999.0,89,0.25,,,0.36,Wunderground v.1.15,2013-06-13 12:08:00,
2013-06-13 08:13:00,68.2,64.8,29.64,WSW,248,11.0,-999.0,89,0.25,,,0.36,Wunderground v.1.15,2013-06-13 12:13:00,
2013-06-13 08:18:00,68.1,65.1,29.66,WSW,248,10.0,-999.0,90,0.26,,,0.36,Wunderground v.1.15,2013-06-13 12:18:00,
2013-06-13 08:23:00,67.9,65.2,29.64,WSW,248,7.0,-999.0,91,0.27,,,0.36,Wunderground v.1.15,2013-06-13 12:23:00,
2013-06-13 08:28:00,67.9,65.2,29.63,West,270,8.0,-999.0,91,0.27,,,0.36,Wunderground v.1.15,2013-06-13 12:28:00,
2013-06-13 08:33:00,68.1,65.4,29.64,WSW,248,8.0,-999.0,91,0.28,,,0.36,Wunderground v.1.15,2013-06-13 12:33:00,
2013-06-13 08:38:00,68.2,65.5,29.65,SW,225,7.0,-999.0,91,0.28,,,0.36,Wunderground v.1.15,2013-06-13 12:38:00,
2013-06-13 08:43:00,68.3,65.6,29.64,SW,225,4.0,-999.0,91,0.29,,,0.36,Wunderground v.1.15,2013-06-13 12:43:00,
2013-06-13 08:48:00,68.1,65.7,29.63,WSW,248,3.0,-999.0,92,0.29,,,0.36,Wunderground v.1.15,2013-06-13 12:48:00,
2013-06-13 08:53:00,68.1,66.0,29.63,SSW,203,2.0,-999.0,93,0.17,,,0.36,Wunderground v.1.15,2013-06-13 12:53:00,
2013-06-13 08:58:00,68.0,65.9,29.62,SSW,203,1.0,-999.0,93,0.07,,,0.36,Wunderground v.1.15,2013-06-13 12:58:00,
2013-06-13 09:03:00,68.0,66.2,29.63,SSW,203,2.0,-999.0,94,0.05,,,0.36,Wunderground v.1.15,2013-06-13 13:03:00,
2013-06-13 09:08:00,68.1,66.3,29.63,SSW,203,4.0,-999.0,94,0.05,,,0.36,Wunderground v.1.15,2013-06-13 13:08:00,
2013-06-13 09:13:00,68.2,66.4,29.62,SSW,203,3.0,-999.0,94,0.05,,,0.36,Wunderground v.1.15,2013-06-13 13:13:00,
2013-06-13 09:18:00,68.2,66.4,29.60,SSW,203,2.0,-999.0,94,0.05,,,0.36,Wunderground v.1.15,2013-06-13 13:18:00,
2013-06-13 09:23:00,68.3,66.2,29.59,SSW,203,4.0,-999.0,93,0.04,,,0.36,Wunderground v.1.15,2013-06-13 13:23:00,
2013-06-13 09:28:00,68.4,66.3,29.59,SW,225,5.0,-999.0,93,0.04,,,0.36,Wunderground v.1.15,2013-06-13 13:28:00,
2013-06-13 09:33:00,68.5,66.4,29.59,SW,225,4.0,-999.0,93,0.03,,,0.36,Wunderground v.1.15,2013-06-13 13:33:00,
2013-06-13 09:38:00,68.6,66.2,29.57,WSW,248,3.0,-999.0,92,0.03,,,0.36,Wunderground v.1.15,2013-06-13 13:38:00,
2013-06-13 09:43:00,69.5,65.8,29.57,West,270,8.0,-999.0,88,0.03,,,0.36,Wunderground v.1.15,2013-06-13 13:43:00,
2013-06-13 09:48:00,70.4,65.3,29.59,West,270,12.0,-999.0,84,0.03,,,0.36,Wunderground v.1.15,2013-06-13 13:48:00,
2013-06-13 09:53:00,70.6,65.2,29.58,West,270,10.0,-999.0,83,0.04,,,0.36,Wunderground v.1.15,2013-06-13 13:53:00,
2013-06-13 09:58:00,70.7,64.6,29.57,SW,225,7.0,-999.0,81,0.04,,,0.36,Wunderground v.1.15,2013-06-13 13:58:00,
2013-06-13 10:03:00,72.2,64.6,29.57,SW,225,10.0,-999.0,77,0.04,,,0.36,Wunderground v.1.15,2013-06-13 14:03:00,
2013-06-13 10:08:00,72.3,64.3,29.57,SW,225,10.0,-999.0,76,0.03,,,0.36,Wunderground v.1.15,2013-06-13 14:08:00,
2013-06-13 10:13:00,71.8,64.6,29.56,WSW,248,6.0,-999.0,78,0.03,,,0.36,Wunderground v.1.15,2013-06-13 14:13:00,
2013-06-13 10:18:00,71.5,64.3,29.55,WSW,248,6.0,-999.0,78,0.02,,,0.36,Wunderground v.1.15,2013-06-13 14:18:00,
2013-06-13 10:23:00,72.0,64.4,29.54,SW,225,6.0,-999.0,77,0.02,,,0.36,Wunderground v.1.15,2013-06-13 14:23:00,
2013-06-13 10:28:00,72.4,64.0,29.52,WSW,248,6.0,-999.0,75,0.02,,,0.36,Wunderground v.1.15,2013-06-13 14:28:00,
2013-06-13 10:33:00,73.0,64.2,29.51,West,270,7.0,-999.0,74,0.02,,,0.36,Wunderground v.1.15,2013-06-13 14:33:00,
2013-06-13 10:38:00,73.5,64.3,29.51,West,270,8.0,-999.0,73,0.02,,,0.36,Wunderground v.1.15,2013-06-13 14:38:00,
2013-06-13 10:43:00,74.0,63.6,29.52,SW,225,11.0,-999.0,70,0.01,,,0.36,Wunderground v.1.15,2013-06-13 14:43:00,
2013-06-13 10:48:00,73.7,64.1,29.52,SW,225,7.0,-999.0,72,0.01,,,0.36,Wunderground v.1.15,2013-06-13 14:48:00,
2013-06-13 10:53:00,73.1,63.9,29.53,WSW,248,9.0,-999.0,73,0.00,,,0.36,Wunderground v.1.15,2013-06-13 14:53:00,
2013-06-13 10:58:00,72.8,63.6,29.52,SW,225,8.0,-999.0,73,0.00,,,0.36,Wunderground v.1.15,2013-06-13 14:58:00,
2013-06-13 11:03:00,72.7,63.9,29.51,WSW,248,9.0,-999.0,74,0.00,,,0.36,Wunderground v.1.15,2013-06-13 15:03:00,
2013-06-13 11:08:00,72.9,64.1,29.51,West,270,10.0,-999.0,74,0.00,,,0.36,Wunderground v.1.15,2013-06-13 15:08:00,
2013-06-13 11:13:00,73.1,63.9,29.52,SW,225,9.0,-999.0,73,0.00,,,0.36,Wunderground v.1.15,2013-06-13 15:13:00,
2013-06-13 11:18:00,74.2,65.0,29.52,SW,225,9.0,-999.0,73,0.00,,,0.36,Wunderground v.1.15,2013-06-13 15:18:00,
2013-06-13 11:23:00,75.7,65.2,29.53,SW,225,10.0,-999.0,70,0.00,,,0.36,Wunderground v.1.15,2013-06-13 15:23:00,
2013-06-13 11:28:00,76.8,65.0,29.52,SW,225,9.0,-999.0,67,0.00,,,0.36,Wunderground v.1.15,2013-06-13 15:28:00,
2013-06-13 11:33:00,77.6,65.8,29.52,WSW,248,7.0,-999.0,67,0.00,,,0.36,Wunderground v.1.15,2013-06-13 15:33:00,
2013-06-13 11:38:00,78.5,65.8,29.52,West,270,8.0,-999.0,65,0.00,,,0.36,Wunderground v.1.15,2013-06-13 15:38:00,
2013-06-13 11:43:00,79.4,65.7,29.52,WSW,248,9.0,-999.0,63,0.00,,,0.36,Wunderground v.1.15,2013-06-13 15:43:00,
2013-06-13 11:48:00,80.2,65.1,29.51,SW,225,10.0,-999.0,60,0.00,,,0.36,Wunderground v.1.15,2013-06-13 15:48:00,
2013-06-13 11:53:00,80.6,64.9,29.51,West,270,17.0,-999.0,59,0.00,,,0.36,Wunderground v.1.15,2013-06-13 15:53:00,
2013-06-13 11:58:00,80.7,64.5,29.51,West,270,15.0,-999.0,58,0.00,,,0.36,Wunderground v.1.15,2013-06-13 15:58:00,
2013-06-13 12:03:00,80.8,65.1,29.50,West,270,13.0,-999.0,59,0.00,,,0.36,Wunderground v.1.15,2013-06-13 16:03:00,
2013-06-13 12:08:00,81.0,65.3,29.48,West,270,11.0,-999.0,59,0.00,,,0.36,Wunderground v.1.15,2013-06-13 16:08:00,
2013-06-13 12:13:00,80.7,63.5,29.47,West,270,12.0,-999.0,56,0.00,,,0.36,Wunderground v.1.15,2013-06-13 16:13:00,
2013-06-13 12:18:00,80.4,64.3,29.47,WSW,248,8.0,-999.0,58,0.00,,,0.36,Wunderground v.1.15,2013-06-13 16:18:00,
2013-06-13 12:23:00,80.7,65.0,29.49,WSW,248,10.0,-999.0,59,0.00,,,0.36,Wunderground v.1.15,2013-06-13 16:23:00,
2013-06-13 12:28:00,80.9,65.7,29.49,WSW,248,11.0,-999.0,60,0.00,,,0.36,Wunderground v.1.15,2013-06-13 16:28:00,
2013-06-13 12:33:00,81.0,65.3,29.49,West,270,15.0,-999.0,59,0.00,,,0.36,Wunderground v.1.15,2013-06-13 16:33:00,
2013-06-13 12:38:00,81.0,65.3,29.48,West,270,14.0,-999.0,59,0.00,,,0.36,Wunderground v.1.15,2013-06-13 16:38:00,
2013-06-13 12:43:00,81.0,65.3,29.48,West,270,15.0,-999.0,59,0.00,,,0.36,Wunderground v.1.15,2013-06-13 16:43:00,
2013-06-13 12:48:00,80.7,65.0,29.48,West,270,14.0,-999.0,59,0.00,,,0.36,Wunderground v.1.15,2013-06-13 16:48:00,
2013-06-13 12:53:00,79.8,65.2,29.49,West,270,12.0,-999.0,61,0.00,,,0.36,Wunderground v.1.15,2013-06-13 16:53:00,
2013-06-13 12:58:00,79.9,66.2,29.49,West,270,11.0,-999.0,63,0.00,,,0.36,Wunderground v.1.15,2013-06-13 16:58:00,
2013-06-13 13:03:00,80.5,66.3,29.49,WSW,248,10.0,-999.0,62,0.00,,,0.36,Wunderground v.1.15,2013-06-13 17:03:00,
2013-06-13 13:08:00,81.3,67.0,29.49,West,270,9.0,-999.0,62,0.00,,,0.36,Wunderground v.1.15,2013-06-13 17:08:00,
2013-06-13 13:13:00,81.8,67.0,29.49,West,270,10.0,-999.0,61,0.00,,,0.36,Wunderground v.1.15,2013-06-13 17:13:00,
2013-06-13 13:18:00,82.1,67.3,29.49,West,270,11.0,-999.0,61,0.00,,,0.36,Wunderground v.1.15,2013-06-13 17:18:00,
2013-06-13 13:23:00,82.1,66.8,29.48,West,270,12.0,-999.0,60,0.00,,,0.36,Wunderground v.1.15,2013-06-13 17:23:00,
2013-06-13 13:28:00,81.9,66.6,29.48,West,270,11.0,-999.0,60,0.00,,,0.36,Wunderground v.1.15,2013-06-13 17:28:00,
2013-06-13 13:33:00,81.1,66.4,29.48,West,270,12.0,-999.0,61,0.00,,,0.36,Wunderground v.1.15,2013-06-13 17:33:00,
2013-06-13 13:38:00,81.2,67.9,29.48,West,270,11.0,-999.0,64,0.00,,,0.36,Wunderground v.1.15,2013-06-13 17:38:00,
2013-06-13 13:43:00,81.6,66.4,29.49,West,270,13.0,-999.0,60,0.00,,,0.36,Wunderground v.1.15,2013-06-13 17:43:00,
2013-06-13 13:48:00,81.8,66.6,29.49,West,270,13.0,-999.0,60,0.00,,,0.36,Wunderground v.1.15,2013-06-13 17:48:00,
2013-06-13 13:53:00,81.9,66.6,29.49,West,270,11.0,-999.0,60,0.00,,,0.36,Wunderground v.1.15,2013-06-13 17:53:00,
2013-06-13 13:58:00,82.1,66.8,29.49,West,270,11.0,-999.0,60,0.00,,,0.36,Wunderground v.1.15,2013-06-13 17:58:00,
2013-06-13 14:03:00,81.7,67.4,29.49,WSW,248,11.0,-999.0,62,0.00,,,0.36,Wunderground v.1.15,2013-06-13 18:03:00,
2013-06-13 14:08:00,81.9,66.6,29.49,WSW,248,10.0,-999.0,60,0.00,,,0.36,Wunderground v.1.15,2013-06-13 18:08:00,
2013-06-13 14:13:00,81.6,67.3,29.50,WSW,248,11.0,-999.0,62,0.00,,,0.36,Wunderground v.1.15,2013-06-13 18:13:00,
2013-06-13 14:18:00,81.8,67.5,29.49,WSW,248,10.0,-999.0,62,0.00,,,0.36,Wunderground v.1.15,2013-06-13 18:18:00,
2013-06-13 14:23:00,82.3,67.5,29.49,West,270,12.0,-999.0,61,0.00,,,0.36,Wunderground v.1.15,2013-06-13 18:23:00,
2013-06-13 14:28:00,83.0,67.2,29.48,West,270,9.0,-999.0,59,0.00,,,0.36,Wunderground v.1.15,2013-06-13 18:28:00,
2013-06-13 14:33:00,82.6,67.3,29.48,West,270,10.0,-999.0,60,0.00,,,0.36,Wunderground v.1.15,2013-06-13 18:33:00,
2013-06-13 14:38:00,82.3,66.5,29.48,West,270,15.0,-999.0,59,0.00,,,0.36,Wunderground v.1.15,2013-06-13 18:38:00,
2013-06-13 14:43:00,82.1,66.4,29.48,West,270,12.0,-999.0,59,0.00,,,0.36,Wunderground v.1.15,2013-06-13 18:43:00,
2013-06-13 14:48:00,82.3,66.5,29.48,West,270,13.0,-999.0,59,0.00,,,0.36,Wunderground v.1.15,2013-06-13 18:48:00,
2013-06-13 14:53:00,82.5,66.7,29.47,West,270,12.0,-999.0,59,0.00,,,0.36,Wunderground v.1.15,2013-06-13 18:53:00,
2013-06-13 14:58:00,82.5,67.7,29.47,West,270,9.0,-999.0,61,0.00,,,0.36,Wunderground v.1.15,2013-06-13 18:58:00,
2013-06-13 15:03:00,82.2,66.9,29.47,West,270,9.0,-999.0,60,0.00,,,0.36,Wunderground v.1.15,2013-06-13 19:03:00,
2013-06-13 15:08:00,81.3,66.6,29.47,West,270,11.0,-999.0,61,0.00,,,0.36,Wunderground v.1.15,2013-06-13 19:08:00,
2013-06-13 15:13:00,81.1,66.8,29.47,West,270,11.0,-999.0,62,0.00,,,0.36,Wunderground v.1.15,2013-06-13 19:13:00,
2013-06-13 15:18:00,80.6,66.4,29.47,West,270,9.0,-999.0,62,0.00,,,0.36,Wunderground v.1.15,2013-06-13 19:18:00,
2013-06-13 15:23:00,80.0,66.7,29.47,West,270,9.0,-999.0,64,0.00,,,0.36,Wunderground v.1.15,2013-06-13 19:23:00,
2013-06-13 15:28:00,79.1,67.2,29.46,West,270,9.0,-999.0,67,0.00,,,0.36,Wunderground v.1.15,2013-06-13 19:28:00,
2013-06-13 15:33:00,78.0,66.6,29.46,West,270,11.0,-999.0,68,0.00,,,0.36,Wunderground v.1.15,2013-06-13 19:33:00,
2013-06-13 15:38:00,77.3,66.7,29.46,West,270,9.0,-999.0,70,0.00,,,0.36,Wunderground v.1.15,2013-06-13 19:38:00,
2013-06-13 15:43:00,76.9,66.8,29.47,West,270,8.0,-999.0,71,0.00,,,0.36,Wunderground v.1.15,2013-06-13 19:43:00,
2013-06-13 15:48:00,76.2,67.3,29.47,SW,225,6.0,-999.0,74,0.00,,,0.36,Wunderground v.1.15,2013-06-13 19:48:00,
2013-06-13 15:53:00,75.4,66.9,29.47,SW,225,6.0,-999.0,75,0.00,,,0.36,Wunderground v.1.15,2013-06-13 19:53:00,
2013-06-13 15:58:00,74.7,67.4,29.47,WSW,248,5.0,-999.0,78,0.01,,,0.36,Wunderground v.1.15,2013-06-13 19:58:00,
2013-06-13 16:03:00,73.9,67.3,29.45,West,270,5.0,-999.0,80,0.02,,,0.36,Wunderground v.1.15,2013-06-13 20:03:00,
2013-06-13 16:08:00,73.5,68.0,29.45,West,270,4.0,-999.0,83,0.02,,,0.36,Wunderground v.1.15,2013-06-13 20:08:00,
2013-06-13 16:13:00,73.0,67.9,29.45,WSW,248,4.0,-999.0,84,0.02,,,0.36,Wunderground v.1.15,2013-06-13 20:13:00,
2013-06-13 16:18:00,72.9,67.8,29.44,West,270,3.0,-999.0,84,0.02,,,0.36,Wunderground v.1.15,2013-06-13 20:18:00,
2013-06-13 16:23:00,73.0,67.9,29.44,WSW,248,3.0,-999.0,84,0.02,,,0.36,Wunderground v.1.15,2013-06-13 20:23:00,
2013-06-13 16:28:00,73.2,68.4,29.44,WSW,248,2.0,-999.0,85,0.02,,,0.36,Wunderground v.1.15,2013-06-13 20:28:00,
2013-06-13 16:33:00,73.7,68.2,29.44,West,270,4.0,-999.0,83,0.02,,,0.36,Wunderground v.1.15,2013-06-13 20:33:00,
2013-06-13 16:38:00,74.4,68.5,29.44,WSW,248,4.0,-999.0,82,0.02,,,0.36,Wunderground v.1.15,2013-06-13 20:38:00,
2013-06-13 16:43:00,75.0,68.4,29.44,West,270,5.0,-999.0,80,0.02,,,0.36,Wunderground v.1.15,2013-06-13 20:43:00,
2013-06-13 16:48:00,75.3,68.0,29.44,West,270,5.0,-999.0,78,0.02,,,0.36,Wunderground v.1.15,2013-06-13 20:48:00,
2013-06-13 16:53:00,75.3,68.0,29.45,West,270,7.0,-999.0,78,0.02,,,0.36,Wunderground v.1.15,2013-06-13 20:53:00,
2013-06-13 16:58:00,74.9,67.9,29.45,West,270,8.0,-999.0,79,0.01,,,0.36,Wunderground v.1.15,2013-06-13 20:58:00,
2013-06-13 17:03:00,74.8,67.8,29.46,West,270,7.0,-999.0,79,0.00,,,0.36,Wunderground v.1.15,2013-06-13 21:03:00,
2013-06-13 17:08:00,74.6,67.7,29.46,West,270,7.0,-999.0,79,0.00,,,0.36,Wunderground v.1.15,2013-06-13 21:08:00,
2013-06-13 17:13:00,74.5,67.6,29.45,West,270,10.0,-999.0,79,0.00,,,0.36,Wunderground v.1.15,2013-06-13 21:13:00,
2013-06-13 17:18:00,74.5,67.9,29.45,West,270,9.0,-999.0,80,0.00,,,0.36,Wunderground v.1.15,2013-06-13 21:18:00,
2013-06-13 17:23:00,74.4,67.5,29.46,West,270,8.0,-999.0,79,0.00,,,0.36,Wunderground v.1.15,2013-06-13 21:23:00,
2013-06-13 17:28:00,74.3,67.7,29.46,West,270,5.0,-999.0,80,0.00,,,0.36,Wunderground v.1.15,2013-06-13 21:28:00,
2013-06-13 17:33:00,74.3,67.4,29.45,WSW,248,6.0,-999.0,79,0.00,,,0.36,Wunderground v.1.15,2013-06-13 21:33:00,
2013-06-13 17:38:00,74.3,67.7,29.45,West,270,5.0,-999.0,80,0.00,,,0.36,Wunderground v.1.15,2013-06-13 21:38:00,
2013-06-13 17:43:00,74.2,67.3,29.46,WSW,248,5.0,-999.0,79,0.00,,,0.36,Wunderground v.1.15,2013-06-13 21:43:00,
2013-06-13 17:48:00,74.2,66.9,29.46,West,270,6.0,-999.0,78,0.00,,,0.36,Wunderground v.1.15,2013-06-13 21:48:00,
2013-06-13 17:53:00,74.1,66.8,29.46,West,270,5.0,-999.0,78,0.00,,,0.36,Wunderground v.1.15,2013-06-13 21:53:00,
2013-06-13 17:58:00,74.0,66.7,29.46,West,270,7.0,-999.0,78,0.00,,,0.36,Wunderground v.1.15,2013-06-13 21:58:00,
2013-06-13 18:03:00,73.9,66.6,29.46,West,270,6.0,-999.0,78,0.00,,,0.36,Wunderground v.1.15,2013-06-13 22:03:00,
2013-06-13 18:08:00,73.8,66.9,29.46,West,270,6.0,-999.0,79,0.00,,,0.36,Wunderground v.1.15,2013-06-13 22:08:00,
2013-06-13 18:13:00,73.4,66.5,29.46,West,270,6.0,-999.0,79,0.00,,,0.36,Wunderground v.1.15,2013-06-13 22:13:00,
2013-06-13 18:18:00,73.0,66.5,29.46,West,270,4.0,-999.0,80,0.00,,,0.36,Wunderground v.1.15,2013-06-13 22:18:00,
2013-06-13 18:23:00,72.6,66.1,29.46,West,270,8.0,-999.0,80,0.00,,,0.36,Wunderground v.1.15,2013-06-13 22:23:00,
2013-06-13 18:28:00,72.4,66.2,29.46,West,270,7.0,-999.0,81,0.00,,,0.36,Wunderground v.1.15,2013-06-13 22:28:00,
2013-06-13 18:33:00,72.4,66.2,29.46,West,270,9.0,-999.0,81,0.00,,,0.36,Wunderground v.1.15,2013-06-13 22:33:00,
2013-06-13 18:38:00,72.4,66.2,29.46,West,270,10.0,-999.0,81,0.00,,,0.36,Wunderground v.1.15,2013-06-13 22:38:00,
2013-06-13 18:43:00,72.5,66.0,29.46,West,270,11.0,-999.0,80,0.00,,,0.36,Wunderground v.1.15,2013-06-13 22:43:00,
2013-06-13 18:48:00,72.4,65.2,29.47,West,270,12.0,-999.0,78,0.00,,,0.36,Wunderground v.1.15,2013-06-13 22:48:00,
2013-06-13 18:53:00,72.4,64.4,29.48,West,270,12.0,-999.0,76,0.00,,,0.36,Wunderground v.1.15,2013-06-13 22:53:00,
2013-06-13 18:58:00,72.2,64.2,29.48,West,270,10.0,-999.0,76,0.00,,,0.36,Wunderground v.1.15,2013-06-13 22:58:00,
2013-06-13 19:03:00,72.0,63.6,29.49,West,270,6.0,-999.0,75,0.00,,,0.36,Wunderground v.1.15,2013-06-13 23:03:00,
2013-06-13 19:08:00,71.8,63.4,29.49,West,270,5.0,-999.0,75,0.00,,,0.36,Wunderground v.1.15,2013-06-13 23:08:00,
2013-06-13 19:13:00,71.6,63.3,29.50,West,270,4.0,-999.0,75,0.00,,,0.36,Wunderground v.1.15,2013-06-13 23:13:00,
2013-06-13 19:18:00,71.5,63.2,29.50,WNW,293,2.0,-999.0,75,0.00,,,0.36,Wunderground v.1.15,2013-06-13 23:18:00,
2013-06-13 19:23:00,71.3,62.2,29.51,NNE,23,6.0,-999.0,73,0.00,,,0.36,Wunderground v.1.15,2013-06-13 23:23:00,
2013-06-13 19:28:00,71.1,61.6,29.51,NNE,23,3.0,-999.0,72,0.00,,,0.36,Wunderground v.1.15,2013-06-13 23:28:00,
2013-06-13 19:33:00,71.0,61.1,29.52,NW,315,3.0,-999.0,71,0.00,,,0.36,Wunderground v.1.15,2013-06-13 23:33:00,
2013-06-13 19:38:00,70.9,60.6,29.52,NW,315,3.0,-999.0,70,0.00,,,0.36,Wunderground v.1.15,2013-06-13 23:38:00,
2013-06-13 19:43:00,70.8,61.3,29.52,NNW,338,3.0,-999.0,72,0.00,,,0.36,Wunderground v.1.15,2013-06-13 23:43:00,
2013-06-13 19:48:00,70.5,60.6,29.52,NNW,338,2.0,-999.0,71,0.00,,,0.36,Wunderground v.1.15,2013-06-13 23:48:00,
2013-06-13 19:53:00,70.3,60.4,29.52,WNW,293,2.0,-999.0,71,0.00,,,0.36,Wunderground v.1.15,2013-06-13 23:53:00,
2013-06-13 19:58:00,70.1,60.7,29.52,WNW,293,2.0,-999.0,72,0.00,,,0.36,Wunderground v.1.15,2013-06-13 23:58:00,
2013-06-13 20:03:00,69.9,60.1,29.52,West,270,2.0,-999.0,71,0.00,,,0.36,Wunderground v.1.15,2013-06-14 00:03:00,
2013-06-13 20:08:00,69.9,60.1,29.53,West,270,4.0,-999.0,71,0.00,,,0.36,Wunderground v.1.15,2013-06-14 00:08:00,
2013-06-13 20:13:00,69.7,59.9,29.53,WNW,293,5.0,-999.0,71,0.00,,,0.36,Wunderground v.1.15,2013-06-14 00:13:00,
2013-06-13 20:18:00,69.5,60.1,29.52,WNW,293,3.0,-999.0,72,0.00,,,0.36,Wunderground v.1.15,2013-06-14 00:18:00,
2013-06-13 20:23:00,69.4,60.0,29.52,WSW,248,3.0,-999.0,72,0.00,,,0.36,Wunderground v.1.15,2013-06-14 00:23:00,
2013-06-13 20:28:00,69.2,60.2,29.52,WSW,248,1.0,-999.0,73,0.00,,,0.36,Wunderground v.1.15,2013-06-14 00:28:00,
2013-06-13 20:33:00,68.9,60.3,29.53,SSW,203,2.0,-999.0,74,0.00,,,0.36,Wunderground v.1.15,2013-06-14 00:33:00,
2013-06-13 20:38:00,68.8,60.2,29.53,West,270,3.0,-999.0,74,0.00,,,0.36,Wunderground v.1.15,2013-06-14 00:38:00,
2013-06-13 20:43:00,68.8,60.2,29.53,WNW,293,3.0,-999.0,74,0.00,,,0.36,Wunderground v.1.15,2013-06-14 00:43:00,
2013-06-13 20:48:00,68.8,60.2,29.52,West,270,5.0,-999.0,74,0.00,,,0.36,Wunderground v.1.15,2013-06-14 00:48:00,
2013-06-13 20:53:00,68.7,60.1,29.52,NW,315,3.0,-999.0,74,0.00,,,0.36,Wunderground v.1.15,2013-06-14 00:53:00,
2013-06-13 20:58:00,68.7,59.7,29.51,WNW,293,4.0,-999.0,73,0.00,,,0.36,Wunderground v.1.15,2013-06-14 00:58:00,
2013-06-13 21:03:00,68.7,59.7,29.51,North,0,3.0,-999.0,73,0.00,,,0.36,Wunderground v.1.15,2013-06-14 01:03:00,
2013-06-13 21:08:00,68.7,59.3,29.52,NNW,338,4.0,-999.0,72,0.00,,,0.36,Wunderground v.1.15,2013-06-14 01:08:00,
2013-06-13 21:13:00,68.9,59.1,29.52,West,270,5.0,-999.0,71,0.00,,,0.36,Wunderground v.1.15,2013-06-14 01:13:00,
2013-06-13 21:18:00,69.1,58.9,29.51,NW,315,5.0,-999.0,70,0.00,,,0.36,Wunderground v.1.15,2013-06-14 01:18:00,
2013-06-13 21:23:00,68.9,58.7,29.52,NE,45,3.0,-999.0,70,0.00,,,0.36,Wunderground v.1.15,2013-06-14 01:23:00,
2013-06-13 21:28:00,69.1,58.5,29.53,NE,45,6.0,-999.0,69,0.00,,,0.36,Wunderground v.1.15,2013-06-14 01:28:00,
2013-06-13 21:33:00,69.3,58.3,29.53,NE,45,5.0,-999.0,68,0.00,,,0.36,Wunderground v.1.15,2013-06-14 01:33:00,
2013-06-13 21:38:00,69.3,58.3,29.54,NW,315,3.0,-999.0,68,0.00,,,0.36,Wunderground v.1.15,2013-06-14 01:38:00,
2013-06-13 21:43:00,69.1,58.5,29.54,North,0,2.0,-999.0,69,0.00,,,0.36,Wunderground v.1.15,2013-06-14 01:43:00,
2013-06-13 21:48:00,68.9,57.9,29.54,North,0,1.0,-999.0,68,0.00,,,0.36,Wunderground v.1.15,2013-06-14 01:48:00,
2013-06-13 21:53:00,68.6,57.6,29.54,ESE,113,3.0,-999.0,68,0.00,,,0.36,Wunderground v.1.15,2013-06-14 01:53:00,
2013-06-13 21:58:00,68.5,57.9,29.55,East,90,1.0,-999.0,69,0.00,,,0.36,Wunderground v.1.15,2013-06-14 01:58:00,
2013-06-13 22:03:00,68.2,58.0,29.55,ESE,113,2.0,-999.0,70,0.00,,,0.36,Wunderground v.1.15,2013-06-14 02:03:00,
2013-06-13 22:08:00,68.0,57.4,29.56,East,90,0.0,-999.0,69,0.00,,,0.36,Wunderground v.1.15,2013-06-14 02:08:00,
2013-06-13 22:13:00,68.0,57.4,29.56,East,90,1.0,-999.0,69,0.00,,,0.36,Wunderground v.1.15,2013-06-14 02:13:00,
2013-06-13 22:18:00,68.1,56.7,29.56,North,0,4.0,-999.0,67,0.00,,,0.36,Wunderground v.1.15,2013-06-14 02:18:00,
2013-06-13 22:23:00,68.4,57.0,29.56,NNE,23,4.0,-999.0,67,0.00,,,0.36,Wunderground v.1.15,2013-06-14 02:23:00,
2013-06-13 22:28:00,68.4,56.6,29.56,NNW,338,4.0,-999.0,66,0.00,,,0.36,Wunderground v.1.15,2013-06-14 02:28:00,
2013-06-13 22:33:00,68.4,56.6,29.56,NNW,338,4.0,-999.0,66,0.00,,,0.36,Wunderground v.1.15,2013-06-14 02:33:00,
2013-06-13 22:38:00,68.4,56.2,29.56,NNW,338,5.0,-999.0,65,0.00,,,0.36,Wunderground v.1.15,2013-06-14 02:38:00,
2013-06-13 22:43:00,68.5,56.3,29.56,West,270,5.0,-999.0,65,0.00,,,0.36,Wunderground v.1.15,2013-06-14 02:43:00,
2013-06-13 22:48:00,68.4,56.2,29.57,NNW,338,5.0,-999.0,65,0.00,,,0.36,Wunderground v.1.15,2013-06-14 02:48:00,
2013-06-13 22:53:00,68.6,55.9,29.57,NW,315,8.0,-999.0,64,0.00,,,0.36,Wunderground v.1.15,2013-06-14 02:53:00,
2013-06-13 22:58:00,68.6,55.9,29.57,NNW,338,6.0,-999.0,64,0.00,,,0.36,Wunderground v.1.15,2013-06-14 02:58:00,
2013-06-13 23:03:00,68.6,55.9,29.57,NW,315,5.0,-999.0,64,0.00,,,0.36,Wunderground v.1.15,2013-06-14 03:03:00,
2013-06-13 23:08:00,68.5,56.3,29.57,WNW,293,3.0,-999.0,65,0.00,,,0.36,Wunderground v.1.15,2013-06-14 03:08:00,
2013-06-13 23:13:00,68.5,56.3,29.58,NNW,338,6.0,-999.0,65,0.00,,,0.36,Wunderground v.1.15,2013-06-14 03:13:00,
2013-06-13 23:18:00,68.5,56.3,29.58,NNW,338,7.0,-999.0,65,0.00,,,0.36,Wunderground v.1.15,2013-06-14 03:18:00,
2013-06-13 23:23:00,68.4,56.2,29.58,NW,315,5.0,-999.0,65,0.00,,,0.36,Wunderground v.1.15,2013-06-14 03:23:00,
2013-06-13 23:28:00,68.3,56.1,29.58,NNW,338,6.0,-999.0,65,0.00,,,0.36,Wunderground v.1.15,2013-06-14 03:28:00,
2013-06-13 23:33:00,68.2,56.0,29.58,NW,315,5.0,-999.0,65,0.00,,,0.36,Wunderground v.1.15,2013-06-14 03:33:00,
2013-06-13 23:38:00,68.1,56.3,29.58,West,270,7.0,-999.0,66,0.00,,,0.36,Wunderground v.1.15,2013-06-14 03:38:00,
2013-06-13 23:43:00,68.0,56.2,29.58,West,270,6.0,-999.0,66,0.00,,,0.36,Wunderground v.1.15,2013-06-14 03:43:00,
2013-06-13 23:48:00,67.9,56.1,29.58,NW,315,6.0,-999.0,66,0.00,,,0.36,Wunderground v.1.15,2013-06-14 03:48:00,
2013-06-13 23:53:00,67.8,56.0,29.59,NW,315,7.0,-999.0,66,0.00,,,0.36,Wunderground v.1.15,2013-06-14 03:53:00,
2013-06-13 23:58:00,67.7,55.9,29.59,WNW,293,6.0,-999.0,66,0.00,,,0.36,Wunderground v.1.15,2013-06-14 03:58:00,